Flag for U.S.A. Weather past 2 weeks in Toccoa, Georgia, U.S.A.

Now
68 °F

Low clouds.


Feels Like: 68 °F
Forecast: 63 / 69 °F
Wind: 6 mph from North

Location: Clemson-Oconee County Airport

Current Time: Apr 19, 2015 at 10:46:30 AM

Latest Report: Apr 19, 2015 at 9:54 AM


Visibility: 10 mi

Pressure: 29.85 "Hg

Humidity: 87%

Dew point: 64 °F

Location of ToccoaLocation

Historic Weather in Toccoa — Graph

°F

Toccoa temperature yesterday

Maximum temperature yesterday: 77 °F (at 2:54 PM)
Minimum temperature yesterday: 62 °F (at 5:54 AM)
Average temperature yesterday: 68 °F

Past Weeks' High & Low Weather Summary

 TemperatureHumidityPressure
High88 °F (Apr 9, 2:54 PM)91% (Apr 17, 9:01 PM)30.38 "Hg (Apr 17, 9:01 PM)
Low41 °F (Apr 5, 6:54 AM)14% (Apr 4, 5:54 PM)29.85 "Hg (Apr 19, 9:54 AM)
Average66 °F65%30.13 "Hg
* Reported Apr 4 9:54 AM — Apr 19 9:54 AM, Toccoa, Weather by CustomWeather, © 2015

Note: Actual official high and low records may vary slightly from our data, if they occured in-between our weather recording intervals... More about our weather records

Advertising

Toccoa weather history for previous 24 hours

 ConditionsComfort  
Time TempWeatherWind HumidityBarometerVisibility
9:54 AM
Sun, Apr 19
68 °FLow clouds.6 mph87%29.85 "Hg10 mi
9:01 AM67 °FLight rain. Fog.3 mph90%29.89 "Hg4 mi
8:03 AM66 °FHeavy rain. Fog.No wind90%29.91 "Hg1 mi
7:54 AM66 °FHeavy rain. Fog.No wind90%29.90 "Hg1 mi
7:03 AM66 °FLight rain. Fog.5 mph90%29.91 "Hg2 mi
6:54 AM66 °FLight rain. Fog.5 mph90%29.88 "Hg2 mi
5:54 AM66 °FLight rain. Fog.3 mph90%29.88 "Hg3 mi
4:54 AM66 °FLow clouds.No wind87%29.89 "Hg8 mi
3:54 AM66 °FLow clouds.No wind87%29.90 "Hg10 mi
2:54 AM66 °FOvercast.No wind87%29.92 "Hg10 mi
1:54 AM66 °FOvercast.No wind87%29.94 "Hg10 mi
12:54 AM67 °FMostly cloudy.No wind81%29.95 "Hg10 mi
11:54 PM
Sat, Apr 18
67 °FPassing clouds.No wind81%29.96 "Hg10 mi
10:54 PM67 °FPassing clouds.No wind85%29.96 "Hg10 mi
9:54 PM68 °FOvercast.No wind87%29.97 "Hg10 mi
8:54 PM70 °FOvercast.No wind79%29.96 "Hg10 mi
7:54 PM70 °FSunny.No wind79%29.93 "Hg10 mi
6:54 PM72 °FOvercast.3 mph71%29.92 "Hg10 mi
5:54 PM73 °FMostly cloudy.3 mph66%29.93 "Hg10 mi
4:54 PM76 °FOvercast.No wind56%29.93 "Hg10 mi
3:54 PM75 °FOvercast.7 mph62%29.93 "Hg10 mi
2:54 PM77 °FMostly cloudy.5 mph54%29.95 "Hg10 mi
1:54 PM75 °FPartly sunny.7 mph60%29.97 "Hg10 mi
12:54 PM75 °FPartly sunny.5 mph60%29.98 "Hg10 mi
11:54 AM74 °FSunny.5 mph62%29.98 "Hg10 mi
10:54 AM70 °FScattered clouds.No wind73%30.00 "Hg10 mi
Weather by CustomWeather, © 2015

See weather overviewHow to use our weather pages